Regional Weather Roundup
Issued by NWS

Home | Current Version | Previous Version | Text Only | Print | Product List | Glossary Off
Versions: 1 2 3 4 5 6 7 8 9 10 11 12 13 14 15 16 17 18 19 20 21 22 23 24 25 26 27 28 29 30 31 32 33 34 35 36 37 38 39 40 41 42 43 44 45 46 47 48 49 50

209
ASUS45 KBOU 292207
RWRCO

WEATHER ROUNDUP FOR COLORADO
NATIONAL WEATHER SERVICE DENVER/BOULDER CO
400 PM MDT FRI JUL 29 2016

NOTE: "FAIR" INDICATES FEW OR NO CLOUDS BELOW 12000 FEET WITH NO
SIGNIFICANT WEATHER AND/OR OBSTRUCTIONS TO VISIBILITY.

COZ001>005-013-030-031-292300-
...NORTHWEST COLORADO...

CITY           SKY/WX    TMP DP  RH WIND       PRES   REMARKS
CRAIG          FAIR      91  29  11 W9        30.13F
HAYDEN         FAIR      86  30  13 W5        30.17F
MEEKER         FAIR      88  32  13 SW5G16    30.15F
MOUNT WERNER   NOT AVBL
STEAMBOAT SPGS FAIR      85  33  15 NW7       30.18F
WALDEN         FAIR      77  30  18 NW6       30.29F
$$

COZ006>008-011-292300-
...WEST CENTRAL VALLEYS...

CITY           SKY/WX    TMP DP  RH WIND       PRES   REMARKS
GRAND JUNCTION FAIR      99  32   9 VRB6      29.97F
MONTROSE       FAIR      93  32  11 NW8G16    30.09F
EAGLE          SUNNY     88  30  12 N7        30.17F
RIFLE          FAIR      95  34  11 N8        30.05F
DELTA          NOT AVBL
NUCLA          NOT AVBL
$$

COZ017>023-064>068-292300-
...SOUTHWEST COLORADO...

CITY           SKY/WX    TMP DP  RH WIND       PRES   REMARKS
DURANGO        FAIR      90  29  11 SW8G20    30.14F
CORTEZ         FAIR      90  33  13 W12       30.10S
PAGOSA SPRINGS FAIR      83  25  12 S3        30.26S
TELLURIDE      PTSUNNY   75  29  18 CALM      30.43R
WOLF CREEK PAS FAIR      64  28  25 N12G22    30.65F
$$

COZ009-010-012-014-032>034-037-058>063-292300-
...CENTRAL COLORADO...

CITY           SKY/WX    TMP DP  RH WIND       PRES   REMARKS
ASPEN          FAIR      82  26  13 NW18G28   30.26F
BUENA VISTA    FAIR      85  20   9 NW14G29   30.24F
COPPER MTN     FAIR      64  19  17 W18G28    30.64F
BERTHOUD PASS  FAIR      55  41  58 MISG      30.66F
COTTONWOOD PAS FAIR      86   1   4 CALM      30.43F
GUNNISON       FAIR      84  30  14 N14G26    30.27F
KREMMLING      FAIR      88  14   6 W8G23     30.25F
LEADVILLE      PTSUNNY   72  21  14 W15       30.44F
SALIDA         FAIR      91  16   6 N8        30.26F
SUNLIGHT       PTSUNNY   70  32  24 MISG      30.57F
WILKERSON PASS FAIR      63  39  42 E6        30.59S
$$

COZ069>075-292300-
...SAN LUIS VALLEY/SANGRE DE CRISTO MOUNTAINS...

CITY           SKY/WX    TMP DP  RH WIND       PRES   REMARKS
ALAMOSA        FAIR      90  26  10 N15G29    30.19F
LA VETA PASS   FAIR      73  46  38 NE17G25   30.47F
SAGUACHE       FAIR      90  25   9 NW21G35   30.22F
$$

COZ035-036-038>040-292300-
...NORTHERN COLORADO FRONT RANGE...

CITY           SKY/WX    TMP DP  RH WIND       PRES   REMARKS
DENVER INTL AP FAIR      87  49  26 VRB3      30.09F
DMNS CITY PARK   N/A     86  53  32 N3        30.08F
AURORA         MOSUNNY   85  50  29 E2        30.12F
FRONT RANGE AP PTSUNNY   90  48  24 NE12      30.12F
ERIE MUNI ARPT FAIR      87  50  28 CALM      30.08F
BOULDER MUN AP FAIR      84  54  34 CALM      30.09F
CENTENNIAL     FAIR      84  50  30 VRB3      30.14F
BROOMFIELD     MOSUNNY   84  50  30 VRB6      30.14F
LONGMONT       NOT AVBL
$$

COZ041-046-047-076>085-087-088-292300-
...PIKES PEAK/PALMER DIVIDE AND SOUTHERN FOOTHILLS...

CITY           SKY/WX    TMP DP  RH WIND       PRES   REMARKS
COLO. SPRINGS  PTSUNNY   73  55  53 S9        30.22S THUNDER
A. F. ACADEMY  MOSUNNY   75  54  46 S13       30.21F
SCHRIEVER AFB  NOT AVBL
ELLICOTT       NOT AVBL
FALCON         NOT AVBL
FORT CARSON    NOT AVBL
LIMON          FAIR      80  56  43 SE15G23   30.16F
MONUMENT HILL  PTSUNNY   75  54  46 S13G18    30.25F
TRINIDAD       NOT AVBL
$$

COZ042>045-048>051-090-091-292300-
...NORTHEAST COLORADO...

CITY           SKY/WX    TMP DP  RH WIND       PRES   REMARKS
GREELEY ARPT   FAIR      84  57  39 SE9       30.07F
AKRON          FAIR      79  55  43 SE17G24   30.11F
BURLINGTON     FAIR      81  58  45 S15       30.12F
WRAY           NOT AVBL
STERLING       NOT AVBL
HOLYOKE        NOT AVBL
FORT MORGAN    NOT AVBL
$$

COZ086-089-092>099-292300-
...SOUTHEAST COLORADO...

CITY           SKY/WX    TMP DP  RH WIND       PRES   REMARKS
PUEBLO         FAIR      85  56  37 E12G22    30.08F
LA JUNTA       FAIR      84  62  47 E21G30    30.05F
LAMAR          FAIR      82  63  52 SE13G22   30.05F
SPRINGFIELD      N/A     80  60  50 SE13      30.09F
$$




USA.gov is the U.S. government's official web portal to all federal, state and local government web resources and services.